Location: Unspecified
(48.2082°N, 0.0000°E)
Time: 18:33:10
(UTC+00:00)

A-11 Canister half - Pass Details

Date: 20 June 2019
Orbit: 1514 x 1686 km, 47.2° (Epoch: 19 August)

Event Time Altitude Azimuth Distance (km) Brightness Sun altitude
Rises 10:09:12 0° 208° (SSW) 4,902 11.7 56.7°
Reaches altitude 10° 10:12:42 10° 201° (SSW) 3,900 11.4 57.2°
Maximum altitude 10:21:26 36° 139° (SE) 2,358 11.6 58.3°
Drops below altitude 10° 10:29:55 10° 77° (ENE) 3,795 11.4 59.3°
Sets 10:33:15 0° 70° (ENE) 4,758 11.7 59.7°
